Carlsbad, NM

7:47 PM MDT on April 27, 2017 (GMT -0600)
Cavern City

Weather History for KCNM - July, 2012

Change the Weather History Date:

Thursday, July 26, 2012

  Actual Average Record
Temperature  
Mean Temperature 86 °F -  
Max Temperature 98 °F 94 °F 106 °F (2000)
Min Temperature 75 °F 68 °F 60 °F (2004)
Cooling Degree Days 20    
Growing Degree Days 36 (Base 50)    
Moisture  
Dew Point 59 °F    
Average Humidity 43    
Maximum Humidity 69    
Minimum Humidity 23    
Precipitation  
Precipitation 0.03 in - - ()
Sea Level Pressure  
Sea Level Pressure 29.76 in    
Wind  
Wind Speed 5 mph (ESE)    
Max Wind Speed 15 mph    
Max Gust Speed 25 mph    
Visibility 10 miles    
Events Rain , Thunderstorm    
Averages and records for this station are not official NWS values.
T = Trace of Precipitation, MM = Missing Value Source: NWS Daily Summary

Daily Weather History Graph

Daily Weather History Graph

Search for Another Location

Airport or City:

Trip Planner

Search our weather history database for the weather conditions in past years. The results will help you decide how hot, cold, wet, or windy it might be!

Date:

Astronomy

Jul. 26, 2012 Rise Set
Actual Time 6:08 AM MDT 7:58 PM MDT
Civil Twilight 5:40 AM MDT 8:25 PM MDT
Nautical Twilight 5:08 AM MDT 8:58 PM MDT
Astronomical Twilight 4:33 AM MDT 9:32 PM MDT
Moon 1:51 PM MDT (7/26) No Moon Set
Length of Visible Light 14h 44m
Length of Day
13h 50m
First Quarter, 54% of the Moon is Illuminated
Jul 26
First Quarter
Aug 1
Full
Aug 9
Last Quarter
Aug 17
New
Aug 24
First Quarter

Hourly Weather History & Observations

Time (MDT) Temp. Heat Index Dew Point Humidity Pressure Visibility Wind Dir Wind Speed Gust Speed Precip Events Conditions
12:53 AM 79.0 °F - 60.1 °F 52% 29.70 in 10.0 mi ESE 3.5 mph - N/A   Clear
1:53 AM 77.0 °F - 61.0 °F 58% 29.70 in 10.0 mi SSW 4.6 mph - N/A   Clear
2:53 AM 75.9 °F - 62.1 °F 62% 29.69 in 10.0 mi SSW 4.6 mph - N/A   Clear
3:53 AM 77.0 °F - 62.1 °F 60% 29.69 in 10.0 mi NW 4.6 mph - N/A   Clear
4:53 AM 77.0 °F - 62.1 °F 60% 29.70 in 10.0 mi South 3.5 mph - N/A   Clear
5:53 AM 75.9 °F - 62.1 °F 62% 29.72 in 10.0 mi Calm Calm - N/A   Clear
6:53 AM 75.9 °F - 63.0 °F 64% 29.75 in 10.0 mi Calm Calm - N/A   Mostly Cloudy
7:53 AM 78.1 °F - 57.0 °F 48% 29.77 in 10.0 mi Calm Calm - N/A   Scattered Clouds
8:53 AM 82.9 °F 83.2 °F 60.1 °F 46% 29.79 in 10.0 mi North 4.6 mph - N/A   Clear
9:53 AM 84.9 °F 83.9 °F 57.0 °F 38% 29.78 in 10.0 mi NNW 8.1 mph - N/A   Clear
10:53 AM 87.1 °F 85.9 °F 57.0 °F 36% 29.78 in 10.0 mi NNW 6.9 mph - N/A   Clear
11:53 AM 93.0 °F 91.1 °F 55.0 °F 28% 29.77 in 10.0 mi NW 9.2 mph - N/A   Clear
12:53 PM 93.0 °F 91.1 °F 55.0 °F 28% 29.76 in 10.0 mi NW 8.1 mph - N/A   Clear
1:53 PM 93.0 °F 90.8 °F 54.0 °F 27% 29.75 in 10.0 mi Variable 5.8 mph - N/A   Clear
2:53 PM 95.0 °F 92.7 °F 54.0 °F 25% 29.72 in 10.0 mi Variable 6.9 mph - N/A   Clear
3:37 PM 96.8 °F 94.4 °F 53.6 °F 23% 29.90 in 10.0 mi ENE 8.1 mph - N/A Thunderstorm Partly Cloudy
3:51 PM 95.0 °F 92.7 °F 53.6 °F 25% 29.89 in 10.0 mi Variable 3.5 mph - N/A Thunderstorm Clear
3:52 PM 95.0 °F 92.5 °F 53.1 °F 24% 29.70 in 10.0 mi Calm Calm - N/A Thunderstorm Clear
4:12 PM 93.2 °F 91.9 °F 57.2 °F 30% 29.89 in 10.0 mi NNE 15.0 mph 25.3 mph N/A   Clear
4:23 PM 93.2 °F 91.3 °F 55.4 °F 28% 29.89 in 10.0 mi NNE 15.0 mph - N/A   Clear
4:53 PM 91.9 °F 90.6 °F 57.0 °F 31% 29.69 in 10.0 mi NNE 12.7 mph - N/A   Clear
5:53 PM 91.9 °F 90.6 °F 57.0 °F 31% 29.69 in 10.0 mi South 12.7 mph 18.4 mph N/A   Partly Cloudy
6:53 PM 91.9 °F 90.6 °F 57.0 °F 31% 29.70 in 10.0 mi SSW 10.4 mph - N/A   Clear
7:53 PM 90.0 °F 88.6 °F 57.0 °F 33% 29.73 in 10.0 mi SSE 6.9 mph - N/A   Clear
8:53 PM 80.1 °F 81.9 °F 64.9 °F 60% 29.77 in 10.0 mi SE 5.8 mph - 0.03 in Rain Light Rain
9:53 PM 78.1 °F - 66.0 °F 66% 29.80 in 10.0 mi ESE 6.9 mph - 0.00 in   Clear
10:53 PM 78.1 °F - 62.1 °F 58% 29.84 in 10.0 mi SSE 5.8 mph - N/A   Clear
11:53 PM 75.0 °F - 64.0 °F 69% 29.85 in 10.0 mi SE 3.5 mph - N/A   Clear